Probability
0 0 0 0 0 0 0 0 0 0 0 0 0 0 0 0 0 0 0 0 0 0 0 0 0 0 0 0 0 0 0 0 0 0 0 0 0 0 0 0 0 0 0 0
0 0 0 0 0 0 0 0 0 0 0 0 0 0 0 0 0 0 0 0 0 0 0 0 0 0 0 0 0 0 0 0 0 0 0 0 0 0 0 0 0 0 0 0
0 0 0 0 0 0 0 0 0 0 0 0 0 0 0 0 0 0 0 0 0 0 0 0 0 0 0 0 0 0 0 0 0 0 0 0 0 0 0 0 0 0 0 0
0 0 0 0 0 0 0 0 0 0 0 0 0 0 0 0 0 0 0 0 0 0 0 0 0 0 0 0 0 0 0 0 0 0 0 0 0 0 0 0 0 0 0 0
0 0 0 0 0 0 0 0 0 0 0 0 0 0 0 0 0 0 0 0 0 0 0 0 0 0 0 0 0 0 0 0 0 0 0 0 0 0 0 0 0 0 0 0
0 0 0 0 0 0 0 0 0 0 0 0 0 0 0 0 0 0 0 0 0 0 0 0 0 0 0 0 0 0 0 0 0 0 0 0 0 0 0 0 0 0 0 0
0 0 0 0 0 0 0 0 0 0 0 0 0 0 0 0 0 0 0 0 0 0 0 0 0 0 0 0 0 0 0 0 0 0 0 0 0 0 0 0 0 0 0 0
0 0 0 0 0 0 0 0 0 0 0 0 0 0 0 0 0 0 0 0 0 0 0 0 0 0 0 0 0 0 0 0 0 0 0 0 0 0 0 0 0 0 0 0
0 0 0 0 0 0 0 0 0 0 0 0 0 0 0 0 0 0 0 0 0 0 0 0 0 0 0 0 0 0 0 0 0 0 0 0 0 0 0 0 0 0 0 0
0 0 0 0 0 0 0 0 0 0 0 0 0 0 0 0 0 0 0 0 0 0 0 0 0 0 0 0 0 0 0 0 0 0 0 0 0 0 0 0 0 0 0 0
0 0 0 0 0 0 0 0 0 0 0 0 0 0 0 0 0 0 0 0 0 0 0 0 0 0 0 0 0 0 0 0 0 0 0 0 0 0 0 0 0 0 0 0
0 0 0 0 0 0 0 0 0 0 0 0 0 0 0 0 0 0 0 0 0 0 0 0 0 0 0 0 0 0 0 0 0 0 0 0 0 0 0 0 0 0 0 0
0 0 0 0 0 0 0 0 0 0 0 0 0 0 0 0 0 0 0 0 0 0 0 0 0 0 0 0 0 0 0 0 0 0 0 0 0 0 0 0 0 0 0 0
0 0 0 0 0 0 0 0 0 0 0 0 0 0 0 0 0 0 0 0 0 0 0 0 0 0 0 0 0 0 0 0 0 0 0 0 0 0 0 0 0 0 0 0
0 0 0 0 0 0 0 0 0 0 0 0 0 0 0 0 0 0 0 0 0 0 0 0 0 0 0 0 0 0 0 0 0 0 0 0 0 0 0 0 0 0 0 0
0 0 0 0 0 0 0 0 0 0 0 0 0 0 0 0 0 0 0 0 0 0 0 0 0 0 0 0 0 0 0 0 0 0 0 0 0 0 0 0 0 0 0 0
0 0 0 0 0 0 0 0 0 0 0 0 0 0 0 0 0 0 0 0 0 0 0 0 0 0 0 0 0 0 0 0 0 0 0 0 0 0 0 0 0 0 0 0
0 0 0 0 0 0 0 0 0 0 0 0 0 0 0 0 0 0 0 0 0 0 0 0 0 0 0 0 0 0 0 0 0 0 0 0 0 0 0 0 0 0 0 0
0 0 0 0 0 0 0 0 0 0 0 0 0 0 0 0 0 0 0 0 0 0 0 0 0 0 0 0 0 0 0 0 0 0 0 0 0 0 0 0 0 0 0 0
0 0 0 0 0 0 0 0 0 0 0 0 0 0 0 0 0 0 0 0 0 0 0 0 0 0 0 0 0 0 0 0 0 0 0 0 0 0 0 0 0 0 0 0
0 0 0 0 0 0 0 0 0 0 0 0 0 0 0 0 0 0 0 0 0 0 0 0 0 0 0 0 0 0 0 0 0 0 0 0 0 0 0 0 0 0 0 0
0 0 0 0 0 0 0 0 0 0 0 0 0 0 0 0 0 0 0 0 0 0 0 0 0 0 0 0 0 0 0 0 0 0 0 0 0 0 0 0 0 0 0 0
0 0 0 0 0 0 0 0 0 0 0 0 0 0 0 0 0 0 0 0 0 0 0 0 0 0 0 0 0 0 0 0 0 0 0 0 0 0 0 0 0 0 0 0
0 0 0 0 0 0 0 0 0 0 0 0 0 0 0 0 0 0 0 0 0 0 0 0 0 0 0 0 0 0 0 0 0 0 0 0 0 0 0 0 0 0 0 0
0 0 0 0 0 0 0 0 0 0 0 0 0 0 0 0 0 0 0 0 0 0 0 0 0 0 0 0 0 0 0 0 0 0 0 0 0 0 0 0 0 0 0 0
0 0 0 0 0 0 0 0 0 0 0 0 0 0 0 0 0 0 0 0 0 0 0 0 0 0 0 0 0 0 0 0 0 0 0 0 0 0 0 0 0 0 0 0
0 0 0 0 0 0 0 0 0 0 0 0 0 0 0 0 0 0 0 0 0 0 0 0 0 0 0 0 0 0 0 0 0 0 0 0 0 0 0 0 0 0 0 0
Wind_Speed
8 7 6 7 8 8 10 10 9 9 9 8 4 3 2 1 1 2 2 2 3 3 3 3 3 3 3 3 3 3 3 3 4 3 3 3 3 3 3 3 3 3 3 4
7 8 9 11 11 12 13 12 13 13 14 8 4 2 1 1 1 2 2 2 2 2 2 3 3 3 2 3 3 3 3 4 3 3 3 3 3 3 3 3 3 4 4 4
5 3 5 10 11 13 11 10 9 12 9 3 3 1 2 1 1 1 1 1 2 2 2 2 2 2 3 3 2 3 3 4 4 4 4 4 3 3 4 4 4 4 4 4
4 3 10 7 2 5 7 8 8 7 4 2 2 1 2 2 1 1 1 1 1 1 1 1 1 1 2 2 3 3 4 4 4 4 4 3 4 4 4 4 4 4 5 5
3 5 10 6 2 1 2 3 2 3 3 2 1 2 2 1 0 1 1 1 1 1 1 1 2 2 1 2 3 3 4 4 4 4 4 4 4 5 4 4 4 4 4 5
5 6 7 2 1 2 2 3 1 1 2 1 1 1 3 1 0 0 1 1 1 1 1 1 2 2 2 3 3 4 4 4 3 3 4 5 5 5 4 4 4 4 5 5
8 8 8 2 2 2 2 3 1 2 2 1 2 3 3 2 2 1 1 1 0 0 1 2 2 1 3 3 4 4 3 3 3 3 4 4 4 4 4 4 4 4 5 5
6 8 8 2 2 2 2 1 1 2 2 2 3 3 3 3 2 1 2 2 1 1 2 2 2 2 3 4 4 3 3 3 4 4 4 4 4 4 4 4 4 5 5 5
6 6 2 2 2 1 1 2 2 2 3 3 4 4 4 3 3 2 2 2 2 2 3 3 3 3 4 4 3 2 3 3 4 4 4 4 4 4 4 4 4 4 4 5
4 5 3 2 2 1 1 3 3 4 4 4 5 5 4 4 3 3 3 3 2 3 3 4 3 3 4 3 3 3 4 4 3 4 4 4 3 3 4 4 4 4 4 5
7 7 6 4 2 3 3 3 4 4 4 4 5 5 5 4 4 3 3 3 3 3 4 4 4 4 3 3 3 3 4 4 3 4 4 4 4 4 5 5 5 5 5 4
6 4 4 5 4 4 3 4 4 4 4 4 4 5 5 4 4 4 4 4 4 4 5 4 4 4 4 3 3 4 4 4 3 3 3 3 3 4 6 7 8 9 9 7
5 4 4 5 4 3 3 4 4 4 4 5 5 4 4 4 4 4 4 5 5 5 5 5 5 5 4 4 4 4 5 4 3 3 3 3 3 3 4 5 7 9 10 10
4 4 5 5 4 4 4 4 3 4 4 5 5 4 4 5 4 5 5 5 4 4 5 5 5 5 5 4 4 5 5 6 5 4 4 4 4 4 4 4 5 5 6 10
3 3 4 4 4 3 3 3 4 5 5 5 4 4 4 5 5 6 5 4 4 5 5 5 5 6 4 4 4 5 5 4 4 4 4 4 4 4 4 5 5 5 4 5
3 3 4 4 4 4 3 4 4 5 5 5 5 5 5 5 5 6 5 4 4 6 6 5 6 6 4 4 5 4 4 7 6 4 4 4 4 4 4 4 5 5 5 4
3 4 3 3 4 4 4 4 4 5 5 5 5 5 5 5 5 6 6 5 5 6 6 6 6 5 4 5 5 4 4 5 7 5 4 4 4 5 5 5 5 5 5 5
2 3 3 3 3 4 5 5 5 5 5 5 5 5 5 5 6 7 6 5 5 6 6 6 6 5 5 5 4 3 4 4 4 4 4 4 5 5 5 5 5 6 4 5
2 3 3 4 4 4 4 5 5 5 5 4 4 5 6 6 6 6 6 5 6 7 7 6 7 5 5 6 5 3 4 4 4 4 4 7 6 4 5 5 5 5 4 4
3 3 4 4 4 4 5 5 5 5 5 5 5 6 6 6 6 6 6 6 6 6 6 6 5 4 5 5 6 3 4 5 5 4 4 4 5 5 5 5 5 4 4 4
4 5 5 5 5 6 6 6 5 6 6 5 5 6 7 7 6 5 5 7 6 5 5 7 4 4 4 4 5 3 4 4 4 4 5 5 5 5 5 4 4 4 4 4
4 4 5 5 5 6 5 5 5 6 6 5 6 6 6 7 6 6 6 6 6 6 4 3 3 5 6 6 3 4 4 4 4 4 4 4 4 4 4 4 4 4 4 4
4 5 5 5 5 6 6 5 5 5 6 6 6 6 6 6 5 5 6 4 3 6 5 4 6 9 10 5 3 4 4 5 5 4 4 4 4 4 4 4 4 4 4 3
5 5 5 5 5 5 6 7 5 5 5 6 6 6 5 5 5 4 4 7 8 9 5 6 10 10 9 4 3 4 4 4 4 4 4 4 4 4 4 4 4 4 4 4
5 5 5 5 5 5 6 6 5 5 5 4 5 5 4 4 5 5 4 5 8 8 5 7 10 10 6 3 3 4 3 4 4 4 4 4 4 4 4 4 4 4 4 4
5 5 5 5 5 5 4 4 4 4 4 5 5 4 3 3 4 4 4 5 6 8 5 4 4 6 4 3 4 4 3 4 4 4 4 3 4 4 3 3 4 4 3 3
4 4 4 4 4 4 3 3 4 5 4 5 6 5 4 4 4 4 5 4 4 4 4 4 3 3 3 3 3 3 3 3 3 3 3 3 3 3 3 4 3 3 3 3
Wind_Direction
266 279 271 252 238 223 223 222 230 252 259 263 254 244 235 216 185 188 187 183 192 194 194 180 179 183 182 177 176 180 189 203 213 212 205 206 212 219 224 230 234 237 241 243
267 252 255 259 247 237 237 238 245 260 269 274 286 288 272 255 213 204 206 203 205 202 194 185 182 185 182 189 191 187 200 213 217 211 208 208 212 218 226 234 239 239 240 243
262 264 292 261 234 228 228 224 224 242 252 279 289 283 273 264 234 217 241 228 215 218 208 191 189 186 194 200 194 200 211 216 219 213 211 212 214 221 228 233 239 244 245 245
267 277 245 242 208 208 224 237 226 236 257 277 290 312 305 277 246 251 254 229 235 236 236 209 203 204 194 194 201 213 222 223 222 215 215 216 220 228 233 232 236 241 243 245
224 246 267 260 241 187 213 266 255 244 263 270 311 324 290 261 216 239 244 226 219 218 226 218 223 211 187 214 221 225 229 228 223 214 216 218 226 232 234 234 241 241 241 241
222 235 245 245 67 53 76 263 305 303 294 293 60 275 266 310 315 283 310 259 225 234 246 235 234 201 200 228 229 234 234 231 225 218 222 226 229 234 234 233 240 244 248 244
230 242 259 270 133 100 187 247 351 356 331 300 246 241 274 321 322 310 318 302 282 271 263 251 241 216 224 236 242 238 232 230 228 225 228 233 236 235 230 233 239 243 250 252
211 231 247 156 124 180 234 298 327 330 322 303 284 293 300 293 289 292 290 277 257 253 263 263 249 233 238 241 247 243 228 231 233 232 233 232 231 238 231 226 236 245 249 255
209 224 256 146 181 226 342 310 313 316 315 302 287 281 284 282 279 279 273 267 256 248 263 264 249 230 239 245 237 241 234 234 238 239 236 231 226 231 235 228 232 242 242 250
265 265 281 269 265 282 289 286 301 303 300 296 284 283 288 284 281 281 273 264 254 244 251 259 253 246 243 243 230 226 237 241 238 239 240 237 236 230 230 230 232 238 244 249
268 280 293 274 281 301 305 303 300 295 292 292 289 284 280 276 271 267 269 265 254 248 251 256 254 252 247 243 232 228 235 240 242 242 243 240 240 239 239 236 231 233 238 237
251 268 274 287 317 324 310 301 298 297 296 287 276 274 275 271 266 266 264 263 257 253 255 257 255 257 253 240 230 227 236 238 236 236 242 242 248 267 257 252 258 256 255 255
265 290 289 295 309 313 298 296 292 286 283 285 283 277 273 272 270 266 264 259 254 254 256 257 256 256 255 246 235 230 235 238 237 236 236 238 243 249 271 280 264 260 261 263
279 286 284 284 289 294 292 294 294 289 283 278 277 278 274 274 271 265 261 256 255 257 258 255 256 259 255 247 241 237 237 239 238 236 234 232 236 242 248 258 272 273 262 261
278 270 270 286 291 290 291 294 293 288 287 285 282 278 277 275 273 272 269 263 260 259 259 257 258 262 255 246 245 242 239 238 232 231 232 234 236 241 246 251 258 265 270 265
280 278 274 277 283 289 289 283 280 284 290 290 289 282 277 274 275 277 274 265 258 259 259 256 258 261 252 244 244 243 243 244 240 234 234 237 237 240 245 246 251 252 251 254
275 274 274 275 274 279 283 281 278 280 284 284 285 286 286 284 283 280 276 268 259 259 257 255 262 265 256 245 239 239 240 244 241 238 232 233 235 238 242 244 247 250 250 250
256 266 271 268 271 280 287 288 284 282 281 282 287 288 283 278 276 277 279 279 277 275 267 261 262 263 258 250 245 240 240 240 233 231 233 235 239 237 238 243 247 252 259 257
277 274 280 278 272 273 279 284 283 281 281 282 281 277 275 275 274 276 279 276 271 273 275 265 262 258 255 250 250 241 238 241 242 239 236 244 248 242 240 243 246 248 250 251
295 290 288 288 287 281 278 279 280 279 278 275 276 279 281 280 277 276 275 270 261 260 270 271 266 258 255 251 249 241 235 237 241 242 240 238 240 243 242 244 245 247 247 245
286 285 284 282 282 279 273 273 275 277 279 274 269 273 277 280 277 272 272 278 276 269 267 269 265 260 257 257 254 244 236 238 241 242 242 242 242 243 242 243 245 246 245 245
280 281 281 280 280 283 280 273 270 274 279 278 274 273 277 282 283 279 264 262 271 278 278 265 261 263 269 271 253 245 242 244 246 244 242 241 241 242 242 242 244 245 244 243
275 275 277 279 279 282 288 284 275 271 272 274 274 274 273 273 272 275 282 280 274 282 284 267 271 275 277 273 255 249 247 246 245 241 240 239 240 239 240 242 242 241 241 239
275 275 275 278 282 285 286 285 281 274 271 272 270 267 267 277 279 265 264 283 290 291 284 276 281 281 281 271 258 254 250 249 246 243 240 238 237 238 239 238 239 238 238 238
274 276 278 279 278 274 273 279 286 284 281 279 278 273 265 257 265 278 281 281 287 294 290 285 287 286 282 269 260 258 256 253 253 249 241 239 237 238 239 237 236 236 235 235
267 268 268 264 264 269 274 278 280 283 286 290 291 286 284 281 277 280 284 284 284 292 292 285 283 281 274 268 266 265 264 268 268 259 247 242 240 240 240 239 239 239 237 236
272 271 275 281 280 274 275 277 279 283 285 287 293 294 293 292 290 289 289 289 289 287 287 286 284 281 280 277 276 274 271 267 264 259 253 247 244 243 242 238 238 236 230 227